Find Starlink 1277

NORAD ID: 45369 Int'l Des: 2020-019 Owner: SPXS Country: US Constellation: starlink operational
LEOCIRCULAR

リアルタイム位置

3D地球を読み込み中...

Starlink 1277について

説明を読み込み中...

次回通過

Passes for default location (London). Set your location on the main map for personalized predictions.

高度履歴

Loading altitude history...

軌道要素

1 45369U 20019K 26123.62630473 .00059483 00000-0 76917-3 0 9996
2 45369 53.0466 247.5023 0005270 271.3361 88.7047 15.58369355338472
Epoch: May 3, 2026 • Age: 25 hours

現在のステータス

高度 393.0 km
速度 7.68 km/s
衛星直下点 -4.72°S, 141.96°E
打ち上げ日 Mar 18, 2020
運用期間 6.1 years
タイプ internet

技術仕様

分類 Payload
質量 260.00 kg
乾燥質量 248.00 kg
総質量 260.00 kg
長さ 0.20 m
直径 2.80 m
スパン 9.00 m
形状 Box + pan
製造者 SPXS
バスタイプ Starlink
フェーズステータス In Orbit
所有者/国 SPXS/US

Most Searched